Temp_Advection
nan nan nan nan nan nan nan nan nan nan nan nan nan nan nan nan nan nan nan nan nan nan nan nan nan nan nan nan nan nan nan nan nan nan nan nan nan nan nan nan nan nan nan nan
nan -1 -0 0 -0 0 -0 -0 -0 -0 -0 -0 -0 -0 -0 -0 -1 -0 -0 -1 -1 -1 -1 -2 -1 -1 0 0 0 0 -1 0 1 0 1 1 -0 -1 -0 0 1 0 0 nan
nan -0 0 -0 -0 -0 -0 -0 -0 -0 -0 -0 -0 -0 -0 -0 -0 0 -0 -0 -0 -1 -1 -2 -2 -2 -1 -0 0 0 0 1 0 0 0 0 1 0 -1 1 1 -0 0 nan
nan -0 0 -0 -0 -0 0 -0 -0 -0 -0 -0 -0 0 0 -0 0 -0 -0 -0 -1 -1 -1 -1 -1 -2 -2 -1 -1 -1 -0 -0 0 0 -0 0 1 -1 0 1 0 -0 0 nan
nan -0 -0 -0 -0 -0 -0 -0 -0 -0 -0 0 0 -0 -0 -0 -0 -0 -0 -0 -0 -1 -1 -1 -2 -1 -1 -2 -2 -1 -0 0 -0 -0 0 1 1 0 1 1 -0 -1 -1 nan
nan -0 -0 -0 -0 -0 -0 -0 0 0 0 -0 0 0 -0 -0 -0 -1 -0 -0 -0 -0 -1 -1 -2 -1 -0 -1 -1 -1 -0 -0 -0 0 0 0 1 1 -0 -0 -1 -1 -0 nan
nan -0 -0 -0 -0 -0 -0 -0 -0 0 0 -0 -0 0 -0 -0 -0 -0 -0 -0 0 -0 -1 -1 -2 -3 -1 -1 -1 -0 -0 -0 0 0 -0 0 1 -0 -1 -0 0 0 -0 nan
nan -0 -0 -0 -0 -0 -0 -0 -0 -0 -0 -0 -0 0 -0 -0 -0 -0 -0 -0 -0 0 -0 -0 -1 -2 -2 -1 -1 -0 1 1 0 -0 0 0 0 -0 -0 0 1 0 -1 nan
nan -0 -0 -0 -0 -0 -0 -0 -0 -0 0 -0 0 -0 0 -0 -0 0 -0 -0 -0 -0 -0 -0 -1 -1 -1 -1 -1 -1 0 1 1 0 0 0 0 0 0 1 1 -0 -1 nan
nan 0 -0 0 -0 -0 -0 -0 -0 0 -0 -0 0 0 0 -0 -0 -0 0 -0 -0 -0 -0 -0 -0 -1 -1 -1 -1 -0 -1 1 1 1 0 0 0 0 1 0 -1 0 0 nan
nan 0 -0 -0 -0 -0 0 -0 -0 -0 -0 -0 0 -0 0 0 0 0 0 0 0 0 0 -0 -0 -1 -1 -1 -1 -1 -0 -0 1 1 1 1 0 0 0 -0 -0 1 -0 nan
nan -0 -0 -0 -0 -0 -0 -0 -0 -0 -0 -0 0 0 0 0 0 0 0 0 0 1 0 -0 -0 -0 -0 -1 -1 -1 -0 -0 0 -0 0 0 0 0 0 0 0 0 0 nan
nan -0 -0 -0 -0 -0 -0 -0 0 0 0 0 -0 -0 0 0 0 0 0 0 -0 0 0 0 -0 -0 -0 -0 -1 -1 -1 -0 -1 -0 0 0 -0 -0 -0 0 0 0 -0 nan
nan -0 0 0 0 -0 0 -0 -0 -0 0 -0 -0 -0 -0 -0 0 0 0 1 0 0 0 -0 -0 -0 -0 -0 -1 -1 -1 -1 -0 0 0 -0 -0 -0 -0 -0 -0 0 -0 nan
nan -0 -0 0 0 -0 -0 -0 -0 -0 -0 -0 -0 0 0 -0 -0 0 0 0 0 0 0 -0 -0 -0 -0 -0 -0 -0 -1 0 -0 -0 -0 -0 -0 -0 0 0 0 0 -0 nan
nan -0 -0 -0 -0 -0 0 -0 0 0 0 0 -0 -0 0 0 0 -0 -0 -0 0 0 0 0 -0 -0 0 0 0 -0 -0 -1 -0 -0 -1 -0 0 0 0 0 0 -0 0 nan
nan -0 -0 -0 -0 -0 0 1 0 0 0 0 -0 -0 -0 -0 0 0 0 -0 0 0 0 0 0 0 0 0 -0 -0 -1 -1 -1 -1 -0 -0 -0 -0 -0 -0 -0 0 0 nan
nan -0 0 0 -0 -0 -0 0 -0 0 0 0 -0 -0 -0 -0 -0 0 0 0 0 0 0 0 0 0 0 0 -0 -0 0 0 -0 -1 -1 -1 -1 -1 -1 -1 -0 0 0 nan
nan -0 -0 -0 -0 0 0 -0 -0 -0 -0 -0 -0 -0 -0 0 0 0 -0 -0 0 0 0 0 0 0 0 0 0 0 0 0 0 0 -0 -0 -0 -1 -1 -1 -1 -0 -0 nan
nan 0 -0 0 -0 0 0 0 -0 0 -0 0 0 0 0 -0 -0 -0 0 -0 -0 0 0 0 0 0 0 1 1 0 0 0 -0 -0 -0 -0 -0 -0 -0 -0 -0 -0 -0 nan
nan -0 0 -0 -0 0 0 -0 0 -0 -0 0 0 0 0 0 0 0 -0 0 -0 -0 0 0 0 0 0 1 0 0 -0 -0 0 0 0 -0 -0 -0 0 -0 -0 -0 -0 nan
nan -0 -0 -0 -0 0 -0 -0 -0 -0 -0 0 0 0 0 0 0 0 -0 0 0 -0 -0 -0 0 0 0 0 0 -0 -0 0 0 0 1 0 0 0 -0 0 0 0 0 nan
nan 0 -0 0 0 0 -0 -0 -0 -0 -0 0 0 0 0 0 0 0 0 0 0 0 0 0 0 0 0 0 0 -0 0 0 0 0 0 0 0 0 0 -0 0 0 0 nan
nan 0 -0 0 0 -0 -1 -0 -0 -0 -0 0 0 0 0 0 0 0 0 0 0 0 0 0 0 0 0 0 0 -0 -0 -0 0 0 0 0 0 0 -0 0 0 -0 -0 nan
nan -1 -0 -0 0 -0 -1 -0 -0 -0 -0 0 0 0 0 0 0 0 0 0 0 0 0 0 0 0 0 0 0 0 0 0 0 0 0 0 -0 -0 0 0 -0 -0 -0 nan
nan nan nan nan nan nan nan nan nan nan nan nan nan nan nan nan nan nan nan nan nan nan nan nan nan nan nan nan nan nan nan nan nan nan nan nan nan nan nan nan nan nan nan nan
Wind_Speed
11 11 9 8 8 5 6 5 3 3 6 4 4 6 10 15 20 24 24 26 26 26 23 17 11 3 18 25 31 34 38 39 38 41 43 41 36 33 29 27 28 26 26 22
6 12 4 10 8 9 6 3 4 2 6 5 4 3 5 13 18 19 22 24 26 29 28 24 16 7 6 17 25 31 34 38 41 44 45 42 37 35 27 28 31 29 27 25
11 3 6 9 10 7 6 4 2 2 8 1 1 4 2 3 10 18 22 22 23 26 29 29 26 18 11 8 19 27 33 42 39 42 43 43 36 33 32 33 32 31 30 29
8 6 8 7 7 5 1 5 4 4 5 2 2 4 4 6 5 16 23 27 27 27 26 27 27 24 22 13 11 19 30 35 40 43 43 45 41 39 36 37 35 33 33 31
3 6 9 8 5 5 2 8 5 5 5 3 5 5 3 5 7 17 23 23 25 26 25 25 26 26 24 19 13 13 22 29 34 40 43 47 44 43 41 38 40 36 33 33
5 3 4 5 6 2 10 4 1 2 2 4 4 6 1 5 10 13 20 24 23 26 26 24 23 21 22 17 10 14 17 24 34 33 40 47 45 42 39 39 36 32 36 36
2 6 2 7 3 2 8 4 2 3 3 2 3 4 3 6 11 11 19 24 25 23 24 25 25 24 21 18 11 2 16 24 30 30 38 37 44 42 43 40 34 34 37 39
4 1 7 9 4 4 4 4 1 3 3 2 4 5 2 6 10 13 16 19 23 23 23 24 23 23 20 18 14 4 5 17 25 34 32 35 44 40 46 38 39 35 38 43
3 2 0 7 4 4 3 2 6 4 2 4 2 2 7 11 15 20 20 20 24 25 23 24 22 21 19 16 14 8 1 10 19 29 29 21 33 35 35 31 40 37 44 46
1 1 3 2 1 7 5 4 0 1 4 4 2 2 3 15 16 17 20 22 23 25 24 24 22 21 17 15 13 10 6 8 13 19 23 22 16 14 29 36 38 40 33 19
1 1 2 1 6 5 7 3 3 4 4 4 4 1 3 11 14 15 21 21 23 25 25 25 23 20 18 16 13 11 6 4 11 15 21 20 18 17 17 15 13 27 32 30
2 2 3 2 4 4 5 5 3 3 2 2 3 0 5 10 14 17 17 21 22 23 26 24 21 19 17 17 14 9 6 5 5 11 13 14 13 17 16 14 15 18 18 26
2 2 0 3 3 2 3 8 8 7 6 1 3 2 9 14 16 18 16 21 22 24 27 26 20 19 17 18 13 10 6 4 6 10 11 11 10 12 14 16 19 22 23 24
3 3 2 1 1 2 1 6 9 4 1 5 2 11 10 13 14 19 18 18 18 19 23 25 21 19 19 15 14 11 8 6 6 8 10 10 11 11 12 14 18 20 21 22
2 3 2 0 2 3 2 4 2 6 3 2 5 10 12 13 16 19 17 19 17 18 19 22 21 19 19 20 17 12 10 5 3 7 9 11 12 13 15 16 17 18 19 20
2 3 1 1 6 5 6 8 5 4 3 5 6 10 5 18 18 16 16 19 17 17 18 18 20 19 17 18 19 19 15 8 5 6 9 12 14 14 16 18 18 19 19 20
1 5 3 2 3 6 9 8 5 3 3 3 3 5 14 15 18 16 18 17 16 17 18 20 20 20 21 21 19 18 17 12 7 6 7 9 11 12 13 15 16 17 17 18
4 4 1 1 2 3 0 1 2 5 5 6 7 8 12 13 16 16 14 20 20 21 22 21 21 21 21 21 19 18 15 13 10 9 6 7 8 10 10 11 12 13 14 16
4 3 2 1 3 4 3 3 5 5 3 4 5 9 11 13 11 5 16 18 19 20 19 18 18 19 20 21 20 19 19 15 12 10 8 8 9 11 12 12 10 10 12 12
4 1 1 2 2 3 2 2 5 5 3 3 8 8 6 11 7 7 19 18 18 19 18 18 17 17 19 22 23 21 21 18 16 13 10 9 7 6 7 9 10 9 8 9
3 1 5 3 4 4 5 5 9 3 2 2 4 6 6 4 5 11 16 12 14 17 16 16 17 19 20 19 21 23 21 22 19 16 14 10 7 5 2 1 4 5 5 7
4 5 3 3 3 5 10 8 4 2 1 2 4 4 5 6 8 7 11 9 11 10 11 11 12 15 17 18 18 20 22 20 19 19 20 19 16 12 8 5 3 4 6 7
3 5 2 7 4 4 14 7 11 4 4 3 4 3 4 5 7 7 9 8 10 10 12 13 13 14 17 18 19 19 18 17 18 19 22 23 22 21 19 15 13 11 10 10
5 7 3 2 5 15 14 13 11 8 6 3 4 3 6 5 6 6 8 10 11 12 13 15 14 16 18 18 17 17 17 16 14 15 17 18 20 19 21 22 21 19 19 17
5 13 7 5 8 5 14 16 12 10 7 5 5 4 6 5 6 6 8 11 12 13 14 14 16 17 18 19 19 19 18 17 17 17 16 16 17 17 17 19 18 17 18 18
14 8 6 6 14 10 8 22 15 13 10 7 6 6 5 3 5 6 7 9 12 12 13 13 14 16 17 18 19 19 19 18 17 18 19 19 17 16 17 17 16 17 17 16
Wind_Direction
34 70 58 44 68 106 99 93 59 12 7 6 85 70 39 31 34 27 19 11 7 4 356 354 346 334 221 227 239 234 228 226 220 218 225 222 220 219 221 210 210 208 207 208
72 56 35 76 66 66 58 79 22 294 348 333 176 121 70 43 40 31 18 11 3 357 356 353 348 348 193 216 217 239 236 230 224 221 227 229 222 224 228 221 216 213 213 214
81 28 57 74 56 55 60 54 9 326 325 299 137 230 198 42 35 21 18 9 4 1 355 352 345 334 320 236 226 219 215 230 231 222 223 228 225 229 224 228 224 217 216 216
69 10 57 63 66 7 148 354 282 302 335 294 340 293 210 339 350 21 8 1 357 353 352 351 347 334 324 300 266 232 229 227 229 229 225 227 226 219 224 224 227 222 221 221
51 31 33 48 4 338 345 326 305 293 254 232 201 239 132 7 355 356 356 354 348 347 346 347 344 336 327 314 292 240 227 228 230 233 236 233 227 227 225 220 228 226 224 224
70 58 39 335 324 55 314 298 327 113 173 234 177 227 114 13 339 339 344 351 347 343 339 340 340 329 324 314 318 235 233 225 230 240 244 235 235 228 226 225 228 229 232 224
48 41 13 10 342 91 4 346 277 222 205 267 130 219 26 23 353 341 338 342 344 340 338 336 340 335 325 315 310 297 217 230 233 235 245 244 239 231 234 235 236 241 240 235
12 142 13 359 39 313 347 347 349 293 297 315 223 243 143 48 356 340 331 335 341 341 338 334 334 335 329 315 311 310 160 188 217 215 216 229 232 233 239 230 234 243 241 246
359 105 65 48 63 348 358 39 343 286 253 268 197 120 195 341 350 347 345 343 346 343 338 332 329 331 330 315 305 306 193 159 188 210 224 219 219 212 216 230 243 250 245 245
102 293 30 23 93 43 35 346 275 226 281 269 190 224 315 344 337 334 340 342 341 343 339 331 330 328 320 322 301 299 286 163 165 193 213 215 206 198 211 220 232 242 256 252
123 166 64 110 29 30 20 29 335 286 268 282 297 121 335 337 334 328 328 334 334 337 335 329 332 327 321 322 308 294 285 209 166 189 201 214 214 212 214 240 225 227 244 262
30 87 58 105 95 203 64 13 349 283 314 321 281 184 344 332 334 334 336 334 332 332 330 331 332 334 330 322 321 310 293 233 201 193 199 205 207 214 216 213 209 220 233 234
148 59 88 167 193 142 46 355 339 270 248 248 291 3 348 334 328 330 339 333 333 329 330 337 339 342 344 327 326 325 310 241 231 195 214 215 215 217 212 213 217 219 227 228
96 85 181 190 155 142 41 350 4 6 330 325 336 308 332 332 331 324 332 331 331 326 332 339 344 350 343 339 343 331 328 281 195 204 206 210 218 224 224 226 229 232 235 235
78 112 119 131 163 185 188 260 318 44 2 356 307 308 320 311 316 310 330 339 346 334 337 339 342 351 337 353 351 349 331 2 269 237 242 238 235 238 241 238 235 237 239 243
32 118 116 241 201 218 253 234 240 242 257 265 281 292 307 313 318 319 339 345 336 343 340 340 341 349 352 349 350 1 1 343 306 279 258 253 254 248 244 244 245 244 242 242
97 146 154 246 292 247 261 227 211 262 242 211 290 298 308 311 321 321 332 339 330 338 343 348 347 350 6 6 5 14 10 2 341 307 287 280 277 271 269 261 253 252 254 257
143 141 150 305 240 250 44 234 200 215 263 232 270 276 297 302 315 321 326 333 341 346 349 352 354 1 8 11 18 21 14 32 27 19 352 320 296 289 285 277 266 260 259 264
188 156 118 247 244 303 177 190 181 193 267 224 240 285 310 328 316 310 349 342 344 347 347 350 357 4 12 18 27 30 32 39 46 36 13 350 332 308 291 278 276 275 276 282
118 76 155 168 260 255 203 209 170 132 250 207 226 298 307 339 349 335 347 344 342 342 350 357 2 7 21 28 31 36 40 42 43 36 21 8 359 337 315 297 284 280 275 264
178 131 216 203 248 278 239 193 144 215 112 280 303 325 319 326 308 321 344 346 340 347 355 0 7 10 19 28 35 38 43 47 42 36 30 26 20 18 29 331 290 280 245 240
197 175 197 178 225 270 157 135 211 202 234 312 324 321 312 324 339 337 352 353 357 5 15 15 16 21 26 32 37 43 43 47 50 54 53 51 46 45 50 63 97 154 170 179
238 206 194 205 221 209 185 219 212 245 261 304 312 318 331 339 346 349 2 12 14 23 30 31 29 32 38 37 40 43 46 48 51 55 63 64 65 67 68 71 79 93 107 114
220 187 228 214 210 220 219 221 229 233 237 272 307 300 341 347 351 359 13 21 24 28 32 35 37 40 44 46 51 50 51 49 54 57 56 57 60 59 65 68 67 67 66 64
204 163 203 240 238 210 223 214 208 211 231 243 272 274 328 337 353 4 17 24 27 28 31 33 37 39 40 40 44 50 52 54 60 61 58 54 55 55 55 57 59 56 55 48
188 184 184 214 192 181 203 203 201 204 208 220 255 247 297 321 359 12 24 31 34 36 37 37 38 39 39 40 42 44 45 45 48 50 53 54 56 55 54 53 52 48 46 45
Height
1538 1539 1546 1549 1548 1550 1550 1553 1553 1553 1554 1551 1554 1555 1558 1557 1554 1550 1548 1545 1543 1540 1538 1536 1533 1532 1534 1540 1542 1542 1546 1548 1552 1555 1555 1558 1563 1567 1572 1576 1579 1582 1584 1587
1544 1550 1555 1553 1553 1552 1552 1553 1555 1556 1555 1552 1554 1555 1557 1557 1557 1556 1553 1549 1545 1540 1535 1532 1530 1529 1529 1531 1533 1542 1542 1543 1545 1549 1552 1554 1559 1562 1564 1572 1575 1578 1582 1585
1547 1559 1557 1554 1556 1554 1558 1557 1558 1559 1556 1555 1554 1550 1554 1556 1557 1556 1555 1553 1549 1544 1538 1534 1530 1528 1526 1526 1528 1530 1534 1539 1541 1546 1550 1551 1557 1561 1562 1563 1570 1575 1579 1581
1557 1561 1558 1557 1558 1559 1555 1561 1559 1559 1556 1549 1554 1538 1548 1554 1554 1557 1557 1553 1550 1545 1541 1536 1532 1529 1525 1523 1524 1526 1529 1533 1536 1541 1544 1545 1550 1554 1556 1560 1567 1570 1575 1578
1565 1562 1560 1558 1563 1561 1559 1560 1558 1558 1556 1556 1552 1549 1539 1553 1552 1555 1558 1558 1553 1548 1544 1538 1533 1530 1528 1523 1519 1521 1525 1528 1531 1535 1538 1539 1543 1548 1553 1558 1563 1565 1568 1572
1565 1565 1566 1566 1565 1564 1562 1557 1557 1558 1555 1550 1547 1545 1538 1557 1565 1562 1560 1558 1555 1550 1544 1539 1534 1530 1527 1525 1519 1517 1520 1523 1526 1531 1533 1534 1538 1544 1549 1553 1558 1558 1561 1565
1566 1569 1569 1569 1564 1565 1563 1557 1546 1549 1550 1540 1550 1549 1554 1565 1567 1565 1562 1558 1555 1551 1546 1539 1534 1528 1525 1523 1519 1514 1514 1517 1522 1524 1526 1530 1532 1538 1541 1546 1548 1553 1556 1558
1565 1562 1573 1574 1575 1573 1569 1566 1560 1558 1550 1547 1550 1540 1555 1569 1569 1567 1563 1559 1555 1550 1546 1541 1535 1529 1524 1522 1518 1512 1510 1512 1516 1519 1520 1524 1526 1529 1534 1540 1545 1548 1548 1550
1567 1571 1577 1578 1579 1577 1571 1568 1576 1564 1560 1560 1543 1563 1569 1567 1567 1564 1561 1557 1553 1549 1544 1540 1534 1529 1524 1520 1516 1513 1508 1508 1511 1514 1518 1519 1519 1521 1530 1534 1537 1540 1542 1545
1572 1571 1578 1579 1580 1579 1578 1580 1571 1567 1561 1548 1544 1558 1558 1570 1567 1564 1560 1557 1553 1548 1543 1539 1533 1528 1523 1519 1514 1511 1508 1504 1506 1510 1514 1516 1517 1516 1522 1530 1533 1534 1537 1534
1572 1573 1578 1578 1586 1589 1580 1582 1581 1579 1565 1551 1547 1558 1574 1572 1568 1563 1559 1556 1553 1548 1543 1538 1530 1526 1521 1517 1513 1508 1504 1502 1503 1507 1509 1511 1514 1519 1524 1524 1525 1527 1532 1535
1575 1576 1578 1586 1589 1589 1587 1587 1584 1576 1566 1568 1566 1562 1572 1570 1566 1563 1558 1556 1552 1547 1542 1536 1530 1524 1519 1515 1510 1505 1502 1501 1499 1503 1505 1507 1510 1513 1516 1519 1523 1525 1527 1528
1575 1577 1573 1581 1588 1588 1589 1585 1581 1576 1577 1572 1570 1565 1569 1568 1564 1561 1558 1556 1550 1545 1540 1533 1527 1522 1518 1514 1507 1504 1501 1500 1501 1500 1504 1506 1508 1510 1513 1516 1519 1522 1526 1527
1575 1582 1579 1572 1581 1589 1588 1585 1581 1574 1574 1574 1574 1573 1567 1565 1562 1558 1556 1553 1551 1544 1538 1531 1525 1519 1516 1514 1507 1501 1498 1500 1494 1498 1501 1504 1506 1508 1510 1514 1516 1517 1519 1521
1576 1581 1589 1593 1589 1586 1586 1585 1583 1579 1580 1578 1577 1572 1568 1565 1560 1555 1554 1551 1548 1542 1538 1531 1525 1519 1515 1508 1505 1505 1500 1488 1492 1494 1496 1498 1501 1503 1506 1509 1511 1512 1513 1515
1579 1585 1590 1589 1586 1585 1583 1583 1580 1577 1578 1577 1574 1569 1566 1560 1557 1553 1552 1549 1546 1544 1537 1532 1525 1519 1515 1509 1502 1495 1489 1489 1490 1491 1492 1494 1495 1497 1500 1502 1504 1507 1509 1510
1579 1583 1585 1579 1583 1580 1577 1574 1581 1576 1576 1577 1572 1568 1565 1560 1555 1550 1547 1548 1545 1541 1536 1529 1524 1518 1512 1508 1502 1498 1494 1490 1488 1488 1489 1490 1492 1494 1496 1498 1500 1502 1503 1505
1578 1579 1582 1578 1583 1577 1570 1575 1575 1577 1574 1573 1571 1567 1564 1559 1555 1551 1549 1545 1542 1538 1533 1529 1523 1518 1512 1507 1502 1498 1494 1490 1489 1488 1488 1489 1489 1490 1492 1493 1495 1498 1499 1500
1575 1575 1583 1579 1574 1568 1568 1574 1575 1575 1569 1568 1567 1564 1561 1558 1555 1552 1549 1543 1539 1536 1533 1528 1523 1519 1513 1507 1501 1497 1492 1489 1488 1488 1487 1488 1487 1487 1488 1489 1490 1493 1495 1497
1577 1576 1574 1586 1575 1567 1566 1568 1569 1571 1564 1564 1564 1561 1560 1558 1554 1552 1549 1543 1539 1535 1531 1526 1523 1519 1513 1507 1503 1498 1494 1492 1489 1488 1486 1485 1484 1486 1487 1487 1488 1489 1491 1493
1574 1579 1575 1578 1571 1561 1565 1566 1568 1566 1566 1562 1561 1560 1558 1557 1556 1552 1548 1545 1540 1535 1530 1526 1521 1517 1513 1509 1505 1501 1498 1493 1492 1489 1486 1485 1485 1484 1483 1484 1485 1486 1487 1489
1568 1571 1571 1574 1574 1564 1561 1566 1565 1561 1560 1560 1560 1559 1557 1556 1554 1552 1549 1545 1542 1537 1533 1529 1525 1521 1516 1511 1507 1503 1499 1497 1495 1493 1491 1488 1487 1484 1483 1483 1483 1484 1485 1488
1569 1564 1560 1564 1557 1555 1556 1556 1557 1558 1558 1558 1557 1556 1556 1554 1552 1551 1548 1545 1541 1537 1533 1529 1526 1522 1517 1513 1509 1507 1504 1503 1501 1499 1496 1495 1493 1490 1489 1488 1488 1487 1487 1488
1561 1560 1558 1560 1551 1550 1552 1553 1554 1555 1555 1556 1555 1554 1553 1552 1550 1548 1546 1543 1540 1536 1533 1530 1526 1522 1519 1516 1513 1510 1508 1506 1505 1503 1501 1499 1497 1496 1494 1493 1492 1492 1491 1489
1550 1555 1550 1549 1546 1548 1547 1548 1550 1552 1552 1553 1553 1552 1551 1550 1548 1547 1544 1542 1538 1535 1532 1530 1527 1523 1520 1517 1514 1512 1511 1509 1508 1506 1504 1502 1500 1499 1498 1496 1495 1495 1493 1492
1537 1535 1538 1532 1532 1535 1537 1542 1546 1548 1549 1550 1550 1550 1550 1548 1547 1545 1544 1542 1539 1537 1534 1531 1528 1526 1523 1520 1518 1515 1513 1511 1509 1507 1505 1504 1503 1502 1500 1499 1498 1497 1496 1494